DELTA 1 DEB, 10830

Orbit data source: Space-Track

DELTA 1 DEB, 10830 is space debris in SSO originally from a launch on Thu, 29 Jul 1976 UTC launched from the Air Force Western Test Range (AFWTR). Debris objects in space refer to the collection of defunct objects orbiting the Earth. Examples of debris include non-operational satellites, rocket bodies, and fragments generated from explosions, collisions, or faulty payload assembly.

Loading next visibility...
Identifier
10830, 1976-077CA
Orbit
SSO
Country
Flag of USUS
Related business
Manufacturer
Unknown
Mission
Spacecraft
Bus & Motor
Unknown
Mass
Unknown
Launch date (UTC)
1976-07-29 (49 years ago)
Launch vehicle
Unknown
Launch site
Air Force Western Test Range (AFWTR)
Object type
Payload
Rocket body
Debris
Shape & HBR
Unknown shape, 0.2 m
Radar Cross Section
Small (<0.1 m²)

Expand to show TLE details & history
Last TLE update: 7 hours ago

TLE from 7 hours ago
0 DELTA 1 DEB
1 10830U 76077CA  25343.56602471  .00000009  00000-0  44384-3 0  9992
2 10830 101.9140  90.0627 0089143 187.8221 197.9659 12.28435218213332
Epoch: 2025-12-09T13:35Z
TLE epoch observation values (Epoch: 2025-12-09T13:35:04.534Z)
Latitude
24.91699°
Longitude
162.1473°
Altitude
1,626.045 km
Speed
7.03 km/s
True Right ascension
05h 37m 51s
True Declination
24° 48' 00"
Sunlit
Object was in full shadow at epoch
Visualization orbit readout
Latitude
Unknown
Longitude
Unknown
Altitude
Unknown
Speed
Unknown
Apparent Right ascension
Unknown
Apparent Declination
Unknown
Sunlit
N/A
Visualization observer readout
Local Sidereal Time
19:09:07
Azimuth
Unknown
Elevation
Unknown
Doppler factor
Unknown
Orbital elements
Apogee altitude
1,624.302 km
Perigee altitude
1,482.89 km
Semi-major axis
7,931.733 km
Eccentricity
0.00891
Inclination
101.914°
RAAN
90.0627°
Arg. of periapsis
187.8221°
True anomaly
197.65412°
Mean anomaly
197.9659°
Eccentric anomaly
197.80968°
Mean motion
3.07249 °/min
Orbital period
117.17 mins
BSTAR
0.00044384
Loading maneuver chart data...
Computing Atmospheric mass density...
Loading historical data...
Loading historical data...
Loading historical data...
Loading historical data...
Loading historical data...
Loading historical data...
Loading historical data...

Documentation

Showing up to 5 results
|